TimeMST,TemperatureF,Dew PointF,Humidity,Sea Level PressureIn,VisibilityMPH,Wind Direction,Wind SpeedMPH,Gust SpeedMPH,PrecipitationIn,Events,Conditions,WindDirDegrees,DateUTC
12:54 AM,42.1,24.1,49,29.87,10.0,SW,19.6,-,N/A,,Scattered Clouds,220,2013-01-24 07:54:00
1:54 AM,41.0,24.1,51,29.86,10.0,SW,16.1,-,N/A,,Overcast,230,2013-01-24 08:54:00
2:54 AM,45.0,21.9,40,29.83,10.0,WSW,21.9,-,N/A,,Partly Cloudy,240,2013-01-24 09:54:00
3:54 AM,44.1,21.9,42,29.85,10.0,SW,21.9,-,N/A,,Clear,230,2013-01-24 10:54:00
4:54 AM,41.0,25.0,53,29.86,10.0,West,12.7,-,N/A,,Clear,280,2013-01-24 11:54:00
5:54 AM,39.0,26.1,60,29.88,10.0,WSW,13.8,-,N/A,,Clear,250,2013-01-24 12:54:00
6:54 AM,39.9,26.1,58,29.88,10.0,WSW,18.4,-,N/A,,Clear,250,2013-01-24 13:54:00
7:54 AM,39.0,26.1,60,29.90,10.0,West,17.3,-,N/A,,Partly Cloudy,270,2013-01-24 14:54:00
8:54 AM,41.0,26.1,55,29.91,10.0,NW,8.1,-,N/A,,Overcast,320,2013-01-24 15:54:00
9:54 AM,39.9,27.0,60,29.91,10.0,WNW,15.0,20.7,N/A,,Overcast,300,2013-01-24 16:54:00
10:54 AM,39.9,26.1,58,29.93,10.0,WNW,19.6,26.5,N/A,,Scattered Clouds,300,2013-01-24 17:54:00
11:54 AM,41.0,24.1,51,29.96,10.0,NW,15.0,27.6,N/A,,Scattered Clouds,320,2013-01-24 18:54:00
12:54 PM,41.0,23.0,49,29.96,10.0,NW,21.9,31.1,N/A,,Clear,310,2013-01-24 19:54:00
1:54 PM,42.1,21.9,45,29.96,10.0,WNW,20.7,35.7,N/A,,Clear,300,2013-01-24 20:54:00
2:54 PM,41.0,23.0,49,29.97,10.0,NW,20.7,28.8,N/A,,Clear,310,2013-01-24 21:54:00
3:54 PM,39.0,23.0,53,30.01,10.0,WNW,15.0,-,N/A,,Clear,300,2013-01-24 22:54:00
4:54 PM,37.0,23.0,57,30.03,10.0,WNW,15.0,-,N/A,,Clear,300,2013-01-24 23:54:00
5:54 PM,36.0,21.9,57,30.05,10.0,WNW,16.1,-,N/A,,Clear,300,2013-01-25 00:54:00
6:54 PM,28.0,21.0,75,30.10,10.0,WSW,9.2,-,N/A,,Clear,250,2013-01-25 01:54:00
7:54 PM,27.0,19.0,72,30.12,10.0,WSW,10.4,-,N/A,,Clear,250,2013-01-25 02:54:00
8:54 PM,26.1,18.0,71,30.11,10.0,WSW,8.1,-,N/A,,Clear,240,2013-01-25 03:54:00
9:54 PM,25.0,16.0,69,30.11,10.0,SSW,8.1,-,N/A,,Clear,200,2013-01-25 04:54:00
10:54 PM,23.0,15.1,72,30.11,10.0,SE,6.9,-,N/A,,Clear,140,2013-01-25 05:54:00
11:54 PM,21.9,15.1,75,30.11,10.0,Calm,Calm,-,N/A,,Clear,0,2013-01-25 06:54:00